Regional Weather Roundup
Issued by NWS

Home | Current Version | Previous Version | Text Only | Print | Product List | Glossary Off
Versions: 1 2 3 4 5 6 7 8 9 10 11 12 13 14 15 16 17 18 19 20 21 22 23 24 25 26 27 28 29 30 31 32 33 34 35 36 37 38 39 40 41 42 43 44 45 46 47 48 49 50

000
ASUS45 KPSR 241310
RWRAZ

ARIZONA HOURLY REGIONAL WEATHER ROUNDUP
NATIONAL WEATHER SERVICE PHOENIX AZ
600 AM MST WED MAY 24 2017

NOTE: FAIR INDICATES FEW OR NO CLOUDS BELOW 12,000 FEET WITH NO
SIGNIFICANT WEATHER AND/OR OBSTRUCTIONS TO VISIBILITY.

AZZ001>003-036-241400-
NORTHWEST ARIZONA

CITY           SKY/WX    TMP DP  RH WIND       PRES   REMARKS
BULLHEAD CITY  CLEAR     75  28  17 CALM      29.71R
KINGMAN        CLEAR     74  26  16 S13       29.89S
$$

AZZ004>008-015-016-018-241400-
NORTH CENTRAL ARIZONA

CITY           SKY/WX    TMP DP  RH WIND       PRES   REMARKS
GRAND CANYON   PTCLDY    37  28  70 E3        30.13R
WILLIAMS       CLEAR     45  27  49 S9        30.13S
PRESCOTT       CLEAR     54  29  38 SW5       30.03S
FLAGSTAFF      CLEAR     38  27  64 CALM      30.15S
PAYSON         CLEAR     59  25  27 CALM      30.06S
PAGE           CLEAR     62  36  37 CALM      29.95S
$$

AZZ009>014-017-241400-
NORTHEAST ARIZONA

CITY           SKY/WX    TMP DP  RH WIND       PRES   REMARKS
WINSLOW        CLEAR     50  26  39 SE6       30.03S
SAINT JOHNS    PTCLDY    50  28  42 SE3       30.07S
WINDOW ROCK    CLEAR     39  28  64 CALM      30.13S
SHOW LOW       CLEAR     54  23  30 S10       30.12S
$$

AZZ540-542>544-546-548-241400-
GREATER PHOENIX AREA

CITY           SKY/WX    TMP DP  RH WIND       PRES   REMARKS
PHOENIX        PTCLDY    76  33  21 E8        29.75R
BUCKEYE        CLEAR     72  23  16 NE5       29.75R
GLENDALE       CLEAR     73  32  21 CALM      29.76
LUKE AFB       CLEAR     71  35  26 NW5       29.75R
DEER VALLEY    CLEAR     72  26  18 E6        29.77R
SCOTTSDALE     CLEAR     73  39  29 CALM      29.79R
MESA-GATEWAY   CLEAR     73  27  17 SE8       29.79R
$$

AZZ539-553-241400-
SOUTHWEST MARICOPA COUNTY AND PINAL COUNTY

CITY           SKY/WX    TMP DP  RH WIND       PRES   REMARKS
CASA GRANDE    CLEAR     68  29  23 NE6       29.80R
GILA BEND      FAIR      77  26  15 SE10      29.73R
$$

AZZ503-504-507>509-241400-
SOUTHEAST ARIZONA

CITY           SKY/WX    TMP DP  RH WIND       PRES   REMARKS
TUCSON         CLEAR     69  23  17 SE9       29.92R
DAVIS-MONTHAN  CLEAR     68  22  17 SE7       29.90S
RYAN FIELD     CLEAR     63  25  23 E5        29.90
NOGALES        CLEAR     56  24  29 S3        29.99R
SIERRA VISTA   CLEAR     71  19  14 W10       30.04R
DOUGLAS        CLEAR     56  16  20 N3        30.00R
SAFFORD        CLEAR     63  21  20 E3        29.90R
$$

AZZ532-241400-
SOUTHWEST ARIZONA

CITY           SKY/WX    TMP DP  RH WIND       PRES   REMARKS
YUMA           CLEAR     73  42  32 S5        29.70R
$$

CAZ041-043-047-048-061-525>527-560>570-241400-
SOUTHERN CALIFORNIA

CITY           SKY/WX    TMP DP  RH WIND       PRES   REMARKS
DOWNTOWN L.A.  CLOUDY    60  56  86 CALM      29.86S FOG
L.A. AIRPORT   CLOUDY    59  57  93 SW3       29.87R FOG
SAN DIEGO      CLOUDY    62  58  86 W6        29.88S
BURBANK        CLEAR     58  53  84 E6        29.85S
ONTARIO        PTCLDY    61  55  81 SE3       29.86F
RIVERSIDE      CLEAR     58  55  90 CALM      29.87S
PALM SPRINGS   CLEAR     74  54  49 CALM      29.72R
EL CENTRO NAS  PTCLDY    73  25  16 W7        29.69S
IMPERIAL       CLEAR     76  35  22 W8        29.67R
BLYTHE         CLEAR     74  35  24 NW8       29.69S
NEEDLES        CLEAR     79  21  11 SW6       29.72R
$$

NVZ020-UTZ003-241400-
SOUTHERN NEVADA-UTAH

CITY           SKY/WX    TMP DP  RH WIND       PRES   REMARKS
LAS VEGAS      CLEAR     80  27  14 CALM      29.76S
SALT LAKE CITY CLEAR     62  40  44 SE9       29.85F
$$

NMZ009-TXZ055-241400-
NEW MEXICO-WEST TEXAS

CITY           SKY/WX    TMP DP  RH WIND       PRES   REMARKS
ALBUQUERQUE    SUNNY     51  33  50 NW5       30.07R
EL PASO        MOSUNNY   61  36  39 CALM      30.03R
$$


........................KEY........................
SKY/WX - SKY CONDITION/WEATHER
TMP    - TEMPERATURE IN FAHRENHEIT
DP     - DEW POINT IN FAHRENHEIT
RH     - RELATIVE HUMIDITY IN PERCENT
WIND   - DIRECTION AND SPEED IN MILES PER HOUR (MPH)
VRB    - VARIABLE WIND DIRECTION
PRES   - MEAN SEA LEVEL PRESSURE IN INCHES OF MERCURY
         F - FALLING PRESSURE   R - RISING PRESSURE
         S - STEADY PRESSURE
VSB    - VISIBILITY IN MILES
HX     - HEAT INDEX IN FAHRENHEIT
WCI    - WIND CHILL INDEX IN FAHRENHEIT
TC     - TEMPERATURE IN CELSIUS WHICH IS ALSO KNOWN AS
         TEMPERATURE IN CENTIGRADE
AFB    - AIR FORCE BASE
         LUKE AFB IS LUKE AIR FORCE BASE
         DAVIS-MONTHAN IS DAVIS-MONTHAN AIR FORCE BASE
NAS    - NAVAL AIR STATION
         EL CENTRO NAS IS EL CENTRO NAVAL AIR STATION
N/A    - NOT AVAILABLE





USA.gov is the U.S. government's official web portal to all federal, state and local government web resources and services.